Flag for Brazil Weather past 2 weeks in Belo Horizonte, Minas Gerais, Brazil

Now
70 °F

Clear.


Feels Like: 70 °F
Forecast: N/A
Wind: 13 mph from Northeast

Location: Belo Horizonte Airport

Current Time: Jul 23, 2014 at 7:36:11 PM

Latest Report: Jul 23, 2014 at 7:00 PM


Visibility: 10 mi

Pressure: 30.15 "Hg

Humidity: 46%

Dew point: 48 °F

Location of Belo HorizonteLocation

Historic Weather in Belo Horizonte — Graph

°F

Belo Horizonte temperature yesterday

Maximum temperature yesterday: 75 °F (at 2:00 PM)
Minimum temperature yesterday: 57 °F (at 4:00 AM)
Average temperature yesterday: 63 °F

Past Weeks' High & Low Weather Summary

 TemperatureHumidityPressure
High81 °F (Jul 18, 1:00 PM)94% (Jul 15, 7:00 AM)30.36 "Hg (Jul 15, 7:00 AM)
Low52 °F (Jul 15, 7:00 AM)30% (Jul 17, 2:00 PM)30.09 "Hg (Jul 10, 3:00 PM)
Average65 °F63%30.24 "Hg
* Reported Jul 8 6:00 PM — Jul 23 6:00 PM, Belo Horizonte, Weather by CustomWeather, © 2014

Note: Actual official high and low records may vary slightly from our data, if they occured in-between our weather recording intervals... More about our weather records

Advertising

Belo Horizonte weather history for previous 24 hours

 ConditionsComfort  
Time TempWeatherWind HumidityBarometerVisibility
6:00 PM
Jul 23
70 °FClear.12 mph46%30.15 "Hg10 mi
5:00 PM73 °FPassing clouds.13 mph38%30.15 "HgN/A
4:00 PM75 °FPassing clouds.9 mph36%30.15 "HgN/A
3:00 PM75 °FScattered clouds.9 mph34%30.15 "HgN/A
2:00 PM75 °FScattered clouds.13 mph36%30.15 "HgN/A
1:00 PM75 °FScattered clouds.13 mph36%30.21 "HgN/A
12:00 PM72 °FScattered clouds.13 mph44%30.24 "HgN/A
11:00 AM72 °FScattered clouds.14 mph47%30.30 "HgN/A
10:00 AM68 °FPassing clouds.10 mph56%30.33 "HgN/A
9:00 AM61 °FSunny.3 mph72%30.33 "Hg10 mi
8:00 AM55 °FSunny.6 mph77%30.30 "Hg10 mi
7:00 AM54 °FSunny.3 mph82%30.27 "Hg10 mi
6:00 AM55 °FClear.2 mph77%30.27 "Hg10 mi
5:00 AM55 °FClear.2 mph77%30.27 "Hg10 mi
2:00 AM57 °FClear.6 mph72%30.27 "Hg10 mi
1:00 AM57 °FClear.5 mph72%30.27 "Hg10 mi
12:00 AM61 °FClear.7 mph63%30.30 "Hg10 mi
11:00 PM
Jul 22
61 °FClear.7 mph63%30.30 "Hg10 mi
10:00 PM63 °FClear.10 mph59%30.30 "Hg10 mi
9:00 PM63 °FClear.10 mph59%30.30 "Hg10 mi
Weather by CustomWeather, © 2014

See weather overviewHow to use our weather pages